Time,TemperatureF,DewpointF,PressureIn,WindDirection,WindDirectionDegrees,WindSpeedMPH,WindSpeedGustMPH,Humidity,HourlyPrecipIn,Conditions,Clouds,dailyrainin,SoftwareType,DateUTC
2013-09-19 00:02:00,51.6,46.0,30.06,WNW,298,0.0,-999.0,82,-99.99,,,0.00,weatherlink.com 1.10,2013-09-19 04:02:00,
2013-09-19 00:17:00,51.3,46.0,30.06,WNW,298,0.0,-999.0,82,-99.99,,,0.00,weatherlink.com 1.10,2013-09-19 04:17:00,
2013-09-19 00:32:00,51.1,46.0,30.06,WNW,298,0.0,-999.0,84,-99.99,,,0.00,weatherlink.com 1.10,2013-09-19 04:32:00,
2013-09-19 00:47:00,51.0,47.0,30.06,WNW,298,0.0,-999.0,85,-99.99,,,0.00,weatherlink.com 1.10,2013-09-19 04:47:00,
2013-09-19 01:03:00,50.8,47.0,30.06,WNW,298,0.0,-999.0,86,-99.99,,,0.00,weatherlink.com 1.10,2013-09-19 05:03:00,
2013-09-19 01:18:00,50.7,47.0,30.06,WNW,298,0.0,-999.0,87,-99.99,,,0.00,weatherlink.com 1.10,2013-09-19 05:18:00,
2013-09-19 01:33:00,50.5,47.0,30.05,WNW,298,0.0,-999.0,87,-99.99,,,0.00,weatherlink.com 1.10,2013-09-19 05:33:00,
2013-09-19 01:48:00,50.8,47.0,30.05,WNW,298,0.0,-999.0,88,-99.99,,,0.00,weatherlink.com 1.10,2013-09-19 05:48:00,
2013-09-19 02:03:00,51.0,48.0,30.05,WNW,298,0.0,-999.0,89,-99.99,,,0.00,weatherlink.com 1.10,2013-09-19 06:03:00,
2013-09-19 02:18:00,51.0,48.0,30.05,WNW,298,0.0,-999.0,89,-99.99,,,0.00,weatherlink.com 1.10,2013-09-19 06:18:00,
2013-09-19 02:33:00,50.5,47.0,30.04,WNW,298,0.0,-999.0,89,-99.99,,,0.00,weatherlink.com 1.10,2013-09-19 06:33:00,
2013-09-19 02:48:00,50.4,48.0,30.04,WNW,298,0.0,-999.0,90,-99.99,,,0.00,weatherlink.com 1.10,2013-09-19 06:48:00,
2013-09-19 03:03:00,50.2,47.0,30.03,WNW,298,0.0,-999.0,90,-99.99,,,0.00,weatherlink.com 1.10,2013-09-19 07:03:00,
2013-09-19 03:18:00,49.9,47.0,30.03,WNW,298,0.0,-999.0,90,-99.99,,,0.00,weatherlink.com 1.10,2013-09-19 07:18:00,
2013-09-19 03:33:00,50.1,48.0,30.03,WNW,298,0.0,-999.0,91,-99.99,,,0.00,weatherlink.com 1.10,2013-09-19 07:33:00,
2013-09-19 03:48:00,50.1,48.0,30.03,WNW,298,0.0,-999.0,91,-99.99,,,0.00,weatherlink.com 1.10,2013-09-19 07:48:00,
2013-09-19 04:03:00,49.8,47.0,30.03,WNW,298,0.0,-999.0,91,-99.99,,,0.00,weatherlink.com 1.10,2013-09-19 08:03:00,
2013-09-19 04:18:00,49.8,47.0,30.03,WNW,298,0.0,-999.0,91,-99.99,,,0.00,weatherlink.com 1.10,2013-09-19 08:18:00,
2013-09-19 04:33:00,49.8,48.0,30.03,WNW,298,0.0,-999.0,92,-99.99,,,0.00,weatherlink.com 1.10,2013-09-19 08:33:00,
2013-09-19 04:48:00,49.5,47.0,30.03,WNW,298,0.0,-999.0,91,-99.99,,,0.00,weatherlink.com 1.10,2013-09-19 08:48:00,
2013-09-19 05:03:00,49.5,47.0,30.03,WNW,298,0.0,-999.0,92,-99.99,,,0.00,weatherlink.com 1.10,2013-09-19 09:03:00,
2013-09-19 05:18:00,49.5,47.0,30.03,WNW,298,0.0,-999.0,92,-99.99,,,0.00,weatherlink.com 1.10,2013-09-19 09:18:00,
2013-09-19 05:33:00,49.1,47.0,30.03,WNW,298,0.0,-999.0,92,-99.99,,,0.00,weatherlink.com 1.10,2013-09-19 09:33:00,
2013-09-19 05:48:00,48.6,46.0,30.03,WNW,298,0.0,-999.0,92,-99.99,,,0.00,weatherlink.com 1.10,2013-09-19 09:48:00,
2013-09-19 06:03:00,48.3,46.0,30.03,WNW,298,0.0,-999.0,92,-99.99,,,0.00,weatherlink.com 1.10,2013-09-19 10:03:00,
2013-09-19 06:18:00,47.9,46.0,30.03,WNW,298,0.0,-999.0,92,-99.99,,,0.00,weatherlink.com 1.10,2013-09-19 10:18:00,
2013-09-19 06:33:00,47.7,46.0,30.03,WNW,298,0.0,-999.0,92,-99.99,,,0.00,weatherlink.com 1.10,2013-09-19 10:33:00,
2013-09-19 06:48:00,47.7,46.0,30.03,WNW,298,0.0,-999.0,92,-99.99,,,0.00,weatherlink.com 1.10,2013-09-19 10:48:00,
2013-09-19 07:03:00,48.3,46.0,30.03,WNW,298,0.0,-999.0,92,-99.99,,,0.00,weatherlink.com 1.10,2013-09-19 11:03:00,
2013-09-19 07:18:00,50.4,49.0,30.03,WNW,298,0.0,-999.0,93,-99.99,,,0.00,weatherlink.com 1.10,2013-09-19 11:18:00,
2013-09-19 07:33:00,52.0,50.0,30.03,WNW,298,0.0,-999.0,92,-99.99,,,0.00,weatherlink.com 1.10,2013-09-19 11:33:00,
2013-09-19 07:48:00,52.3,50.0,30.03,WNW,298,0.0,-999.0,92,-99.99,,,0.00,weatherlink.com 1.10,2013-09-19 11:48:00,
2013-09-19 08:03:00,53.6,51.0,30.03,WNW,300,0.0,-999.0,89,-99.99,,,0.00,weatherlink.com 1.10,2013-09-19 12:03:00,
2013-09-19 08:18:00,55.6,50.0,30.03,North,0,0.0,-999.0,82,-99.99,,,0.00,weatherlink.com 1.10,2013-09-19 12:18:00,
2013-09-19 08:33:00,57.5,49.0,30.03,North,355,0.0,-999.0,74,-99.99,,,0.00,weatherlink.com 1.10,2013-09-19 12:33:00,
2013-09-19 08:48:00,58.9,49.0,30.03,North,7,0.0,-999.0,70,-99.99,,,0.00,weatherlink.com 1.10,2013-09-19 12:48:00,
2013-09-19 09:03:00,60.2,49.0,30.04,NNE,30,0.0,-999.0,66,-99.99,,,0.00,weatherlink.com 1.10,2013-09-19 13:03:00,
2013-09-19 09:18:00,62.0,50.0,30.03,NNE,29,0.0,-999.0,64,-99.99,,,0.00,weatherlink.com 1.10,2013-09-19 13:18:00,
2013-09-19 09:34:00,63.2,49.0,30.03,NNE,29,0.0,-999.0,61,-99.99,,,0.00,weatherlink.com 1.10,2013-09-19 13:34:00,
2013-09-19 09:49:00,64.5,50.0,30.04,NE,43,0.0,-999.0,59,-99.99,,,0.00,weatherlink.com 1.10,2013-09-19 13:49:00,
2013-09-19 10:04:00,65.3,49.0,30.04,North,7,0.0,-999.0,57,-99.99,,,0.00,weatherlink.com 1.10,2013-09-19 14:04:00,
2013-09-19 10:19:00,66.4,50.0,30.03,NNE,14,0.0,-999.0,56,-99.99,,,0.00,weatherlink.com 1.10,2013-09-19 14:19:00,
2013-09-19 10:34:00,67.8,50.0,30.03,NNE,22,0.0,-999.0,53,-99.99,,,0.00,weatherlink.com 1.10,2013-09-19 14:34:00,
2013-09-19 10:49:00,69.8,50.0,30.03,NE,38,0.0,-999.0,50,-99.99,,,0.00,weatherlink.com 1.10,2013-09-19 14:49:00,
2013-09-19 11:04:00,69.9,49.0,30.02,ESE,119,0.0,-999.0,47,-99.99,,,0.00,weatherlink.com 1.10,2013-09-19 15:04:00,
2013-09-19 11:19:00,69.9,49.0,30.02,SW,219,2.0,-999.0,48,-99.99,,,0.00,weatherlink.com 1.10,2013-09-19 15:19:00,
2013-09-19 11:34:00,71.6,50.0,30.01,ENE,72,0.0,-999.0,46,-99.99,,,0.00,weatherlink.com 1.10,2013-09-19 15:34:00,
2013-09-19 11:49:00,72.3,51.0,30.01,SSW,192,0.0,-999.0,47,-99.99,,,0.00,weatherlink.com 1.10,2013-09-19 15:49:00,
2013-09-19 12:04:00,73.7,49.0,30.01,North,3,0.0,-999.0,42,-99.99,,,0.00,weatherlink.com 1.10,2013-09-19 16:04:00,
2013-09-19 12:19:00,72.8,49.0,30.01,NNE,33,0.0,-999.0,43,-99.99,,,0.00,weatherlink.com 1.10,2013-09-19 16:19:00,
2013-09-19 12:34:00,74.2,48.0,30.00,SW,236,0.0,-999.0,39,-99.99,,,0.00,weatherlink.com 1.10,2013-09-19 16:34:00,
2013-09-19 12:49:00,75.1,48.0,30.00,NW,317,0.0,-999.0,39,-99.99,,,0.00,weatherlink.com 1.10,2013-09-19 16:49:00,
2013-09-19 13:04:00,74.9,48.0,30.00,NNE,22,0.0,-999.0,39,-99.99,,,0.00,weatherlink.com 1.10,2013-09-19 17:04:00,
2013-09-19 13:19:00,75.4,49.0,30.00,NW,304,0.0,-999.0,40,-99.99,,,0.00,weatherlink.com 1.10,2013-09-19 17:19:00,
2013-09-19 13:34:00,76.0,49.0,29.99,NNE,24,1.0,-999.0,38,-99.99,,,0.00,weatherlink.com 1.10,2013-09-19 17:34:00,
2013-09-19 13:49:00,75.3,50.0,29.98,SSW,211,1.0,-999.0,41,-99.99,,,0.00,weatherlink.com 1.10,2013-09-19 17:49:00,
2013-09-19 14:04:00,75.4,51.0,29.98,NNW,331,3.0,-999.0,42,-99.99,,,0.00,weatherlink.com 1.10,2013-09-19 18:04:00,
2013-09-19 14:19:00,76.8,51.0,29.98,North,5,0.0,-999.0,40,-99.99,,,0.00,weatherlink.com 1.10,2013-09-19 18:19:00,
2013-09-19 14:35:00,77.0,50.0,29.98,SE,132,0.0,-999.0,39,-99.99,,,0.00,weatherlink.com 1.10,2013-09-19 18:35:00,
2013-09-19 14:50:00,78.1,50.0,29.97,NNE,19,2.0,-999.0,37,-99.99,,,0.00,weatherlink.com 1.10,2013-09-19 18:50:00,
2013-09-19 15:05:00,77.6,51.0,29.97,SW,222,5.0,-999.0,39,-99.99,,,0.00,weatherlink.com 1.10,2013-09-19 19:05:00,
2013-09-19 15:20:00,77.4,50.0,29.96,North,7,2.0,-999.0,39,-99.99,,,0.00,weatherlink.com 1.10,2013-09-19 19:20:00,
2013-09-19 15:35:00,77.0,49.0,29.96,NW,307,0.0,-999.0,37,-99.99,,,0.00,weatherlink.com 1.10,2013-09-19 19:35:00,
2013-09-19 15:50:00,77.0,49.0,29.95,NW,314,1.0,-999.0,38,-99.99,,,0.00,weatherlink.com 1.10,2013-09-19 19:50:00,
2013-09-19 16:05:00,77.6,50.0,29.95,SW,236,1.0,-999.0,38,-99.99,,,0.00,weatherlink.com 1.10,2013-09-19 20:05:00,
2013-09-19 16:20:00,77.2,50.0,29.95,SW,236,0.0,-999.0,39,-99.99,,,0.00,weatherlink.com 1.10,2013-09-19 20:20:00,
2013-09-19 16:35:00,76.8,51.0,29.95,NW,319,1.0,-999.0,41,-99.99,,,0.00,weatherlink.com 1.10,2013-09-19 20:35:00,
2013-09-19 16:50:00,77.2,52.0,29.94,West,262,0.0,-999.0,41,-99.99,,,0.00,weatherlink.com 1.10,2013-09-19 20:50:00,
2013-09-19 17:05:00,76.8,53.0,29.95,North,350,0.0,-999.0,43,-99.99,,,0.00,weatherlink.com 1.10,2013-09-19 21:05:00,
2013-09-19 17:20:00,76.1,53.0,29.94,SW,222,0.0,-999.0,45,-99.99,,,0.00,weatherlink.com 1.10,2013-09-19 21:20:00,
2013-09-19 17:35:00,75.1,53.0,29.95,WNW,300,0.0,-999.0,46,-99.99,,,0.00,weatherlink.com 1.10,2013-09-19 21:35:00,
2013-09-19 17:50:00,74.2,54.0,29.94,WNW,294,0.0,-999.0,49,-99.99,,,0.00,weatherlink.com 1.10,2013-09-19 21:50:00,
2013-09-19 18:05:00,73.5,54.0,29.95,NW,310,0.0,-999.0,51,-99.99,,,0.00,weatherlink.com 1.10,2013-09-19 22:05:00,
2013-09-19 18:20:00,72.1,55.0,29.95,WSW,253,0.0,-999.0,55,-99.99,,,0.00,weatherlink.com 1.10,2013-09-19 22:20:00,
2013-09-19 18:35:00,70.6,55.0,29.95,WSW,240,3.0,-999.0,59,-99.99,,,0.00,weatherlink.com 1.10,2013-09-19 22:35:00,
2013-09-19 18:50:00,68.9,55.0,29.95,SW,233,0.0,-999.0,62,-99.99,,,0.00,weatherlink.com 1.10,2013-09-19 22:50:00,
2013-09-19 19:05:00,67.4,55.0,29.95,West,262,0.0,-999.0,64,-99.99,,,0.00,weatherlink.com 1.10,2013-09-19 23:05:00,
2013-09-19 19:20:00,66.6,54.0,29.95,SW,228,0.0,-999.0,65,-99.99,,,0.00,weatherlink.com 1.10,2013-09-19 23:20:00,
2013-09-19 19:35:00,65.5,54.0,29.95,SW,228,0.0,-999.0,67,-99.99,,,0.00,weatherlink.com 1.10,2013-09-19 23:35:00,
2013-09-19 19:50:00,64.3,54.0,29.96,SW,228,0.0,-999.0,70,-99.99,,,0.00,weatherlink.com 1.10,2013-09-19 23:50:00,
2013-09-19 20:05:00,63.4,54.0,29.97,NW,319,0.0,-999.0,72,-99.99,,,0.00,weatherlink.com 1.10,2013-09-20 00:05:00,
2013-09-19 20:20:00,62.6,54.0,29.97,NW,318,0.0,-999.0,73,-99.99,,,0.00,weatherlink.com 1.10,2013-09-20 00:20:00,
2013-09-19 20:35:00,61.8,53.0,29.98,NW,318,0.0,-999.0,74,-99.99,,,0.00,weatherlink.com 1.10,2013-09-20 00:35:00,
2013-09-19 20:50:00,61.2,54.0,29.98,NW,318,0.0,-999.0,76,-99.99,,,0.00,weatherlink.com 1.10,2013-09-20 00:50:00,
2013-09-19 21:05:00,60.4,53.0,29.98,NW,318,0.0,-999.0,76,-99.99,,,0.00,weatherlink.com 1.10,2013-09-20 01:05:00,
2013-09-19 21:20:00,59.8,53.0,29.98,NW,318,0.0,-999.0,77,-99.99,,,0.00,weatherlink.com 1.10,2013-09-20 01:20:00,
2013-09-19 21:35:00,59.0,52.0,29.98,NW,318,0.0,-999.0,78,-99.99,,,0.00,weatherlink.com 1.10,2013-09-20 01:35:00,
2013-09-19 21:50:00,58.3,52.0,29.98,NW,318,0.0,-999.0,80,-99.99,,,0.00,weatherlink.com 1.10,2013-09-20 01:50:00,
2013-09-19 22:05:00,57.8,52.0,29.98,NW,318,0.0,-999.0,80,-99.99,,,0.00,weatherlink.com 1.10,2013-09-20 02:05:00,
2013-09-19 22:20:00,57.5,51.0,29.98,NW,318,0.0,-999.0,80,-99.99,,,0.00,weatherlink.com 1.10,2013-09-20 02:20:00,
2013-09-19 22:35:00,57.2,51.0,29.98,NW,318,0.0,-999.0,81,-99.99,,,0.00,weatherlink.com 1.10,2013-09-20 02:35:00,
2013-09-19 22:50:00,56.9,51.0,29.98,NW,318,0.0,-999.0,80,-99.99,,,0.00,weatherlink.com 1.10,2013-09-20 02:50:00,
2013-09-19 23:05:00,56.3,51.0,29.98,NW,318,0.0,-999.0,81,-99.99,,,0.00,weatherlink.com 1.10,2013-09-20 03:05:00,
2013-09-19 23:20:00,55.9,51.0,29.98,NW,318,0.0,-999.0,82,-99.99,,,0.00,weatherlink.com 1.10,2013-09-20 03:20:00,
2013-09-19 23:35:00,55.3,50.0,29.98,NW,318,0.0,-999.0,83,-99.99,,,0.00,weatherlink.com 1.10,2013-09-20 03:35:00,
2013-09-19 23:50:00,54.7,50.0,29.98,NW,318,0.0,-999.0,84,-99.99,,,0.00,weatherlink.com 1.10,2013-09-20 03:50:00,